This is the latest recevied weather packets stored in our database for station/object IW4ENL-7. If no packets are shown the sender has not sent any weather packets the latest 1 day(s).
| Time | Temp. | Humidity | Pressure | Rain* | Wind** | Luminosity | Snow |
|---|---|---|---|---|---|---|---|
| 1777983689 | 15.56° C | 62% | 961 hPa | - | 0.45 m/s, 80° | - | - |
| 1777983323 | 14.44° C | 63% | 961 hPa | - | 1.34 m/s, 54° | - | - |
| 1777983140 | 14.44° C | 63% | 961 hPa | - | 1.79 m/s, 85° | - | - |
| 1777982957 | 13.89° C | 63% | 961 hPa | - | 1.79 m/s, 84° | - | - |
| 1777982591 | 13.33° C | 63% | 961 hPa | - | 1.34 m/s, 61° | - | - |
| 1777982042 | 12.78° C | 63% | 961 hPa | - | 2.68 m/s, 90° | - | - |
| 1777981859 | 12.78° C | 63% | 961 hPa | - | 2.68 m/s, 71° | - | - |
| 1777981676 | 13.33° C | 63% | 961 hPa | - | 2.68 m/s, 92° | - | - |
| 1777981310 | 12.78° C | 63% | 961 hPa | - | 1.79 m/s, 99° | - | - |
| 1777981127 | 12.78° C | 63% | 961 hPa | - | 1.79 m/s, 63° | - | - |
| 1777980944 | 12.78° C | 63% | 961 hPa | - | 2.24 m/s, 80° | - | - |
| 1777980761 | 12.78° C | 63% | 961 hPa | - | 1.79 m/s, 45° | - | - |
| 1777980579 | 12.78° C | 63% | 961 hPa | - | 2.24 m/s, 62° | - | - |
| 1777980396 | 12.78° C | 63% | 961 hPa | - | 3.13 m/s, 68° | - | - |
| 1777980213 | 12.78° C | 63% | 961 hPa | - | 2.24 m/s, 80° | - | - |
| 1777980030 | 12.78° C | 63% | 961 hPa | - | 1.79 m/s, 81° | - | - |
| 1777979847 | 13.33° C | 63% | 961 hPa | - | 2.68 m/s, 76° | - | - |
| 1777979826 | 13.33° C | 63% | 961 hPa | - | 3.13 m/s, 45° | - | - |
| 1777979664 | 13.33° C | 63% | 961 hPa | - | 3.13 m/s, 45° | - | - |
| 1777979481 | 13.33° C | 63% | 961 hPa | - | 2.68 m/s, 80° | - | - |
| 1777979298 | 13.33° C | 63% | 961 hPa | - | 1.79 m/s, 79° | - | - |
| 1777979115 | 13.33° C | 64% | 961 hPa | - | 1.34 m/s, 64° | - | - |
| 1777978750 | 12.78° C | 64% | 961 hPa | - | 2.24 m/s, 71° | - | - |
| 1777978567 | 12.78° C | 64% | 961 hPa | - | 1.79 m/s, 73° | - | - |
| 1777978384 | 13.33° C | 64% | 961 hPa | - | 3.13 m/s, 67° | - | - |
* Rain since midnight (hover to see other rain measurements)
** Current wind speed in m/s (hover to see current wind gust speed)